{"data":{"norad_id":35491,"intl_designator":"2009-033A","name":"EWS-G3 (GOES 14)","alt_names":[],"object_type":"PAYLOAD","status":"ACTIVE","operator":null,"country":"US","launch_date":"2009-06-27","launch_site_code":"AFETR","launch_vehicle":null,"mission":null,"orbit_class":"UNKNOWN","rcs_meters":17.6453,"size_class":null,"mass_kg":null,"dimensions":null,"purposes":["comms","earth_obs"],"wikipedia_slug":null,"has_3d_model":false,"image_url":null,"decayed_at":null,"tle_current":{"epoch":"2026-09-20T01:54:07.436736Z","epoch_age_seconds":50784,"freshness":"FRESH","line1":"1 35491U 09033A   26263.07925274 -.00000088  00000+0  00000+0 0  9997","line2":"2 35491   1.9278  81.6949 0002192  91.9116 293.2596  1.00071065  7541","mean_motion":1.00071065,"eccentricity":0.0002192,"inclination_deg":1.9278,"raan_deg":81.6949,"arg_perigee_deg":91.9116,"mean_anomaly_deg":293.2596,"bstar":0,"rev_number":754,"period_min":1438.9773907173,"perigee_km":35833.703231161,"apogee_km":35852.212959251,"semimajor_km":42221.095095206,"source":"CELESTRAK","updated_at":"2026-09-20T09:00:35.158069Z"}}}